DW6064 Weather Reports


time (UTC)temp
F
wind
direction
speed
knots
gust
knots
rain 1hr
in
rain 24hr
in
rain mn
in
humidity
%
barometer
mb
20260904042534 71 168 6.1 7.0 0.02 0.22 0.00 90 1014.0
20260904042035 71 180 4.3 6.1 0.03 0.22 0.00 89 1014.2
20260904041537 71 161 2.6 4.3 0.03 0.22 0.00 90 1014.1
20260904041035 71 138 0.0 4.3 0.03 0.22 0.00 90 1014.1
20260904040557 71 138 0.9 7.8 0.04 0.22 0.00 89 1014.2
20260904040034 71 144 4.3 7.8 0.04 0.22 0.00 89 1014.0
20260904035557 71 174 3.5 5.2 0.05 0.22 0.22 88 1014.3
20260904035036 71 144 2.6 3.5 0.05 0.22 0.22 88 1014.5
20260904034532 72 144 0.9 7.0 0.06 0.22 0.22 88 1014.6
20260904034030 72 138 4.3 7.8 0.06 0.22 0.22 88 1014.7
20260904033551 72 132 5.2 7.8 0.07 0.22 0.22 87 1014.9
20260904033030 72 128 5.2 7.8 0.07 0.21 0.21 86 1014.9
20260904032526 72 196 0.9 5.2 0.07 0.20 0.20 87 1015.1
20260904032051 72 196 0.9 5.2 0.07 0.19 0.19 86 1015.3
20260904031527 72 185 1.7 5.2 0.07 0.19 0.19 86 1015.8
20260904031032 72 185 4.3 5.2 0.07 0.19 0.19 87 1015.9
20260904030529 72 255 0.9 7.0 0.06 0.18 0.18 86 1016.1
20260904030029 73 255 0.0 7.0 0.07 0.18 0.18 85 1016.2
20260904025551 73 264 0.9 7.8 0.06 0.17 0.17 85 1016.3
20260904025029 73 278 3.5 7.8 0.06 0.17 0.17 85 1016.3
20260904024547 74 269 0.9 4.3 0.05 0.16 0.16 86 1016.2
20260904024025 74 247 0.9 4.3 0.05 0.16 0.16 87 1016.2
20260904023542 74 151 0.9 4.3 0.04 0.15 0.15 87 1016.1
20260904023042 74 187 1.7 5.2 0.03 0.14 0.14 87 1016.2
20260904022539 74 187 3.5 5.2 0.02 0.13 0.13 85 1016.1
20260904022038 75 215 1.7 6.1 0.02 0.12 0.12 85 1016.0
20260904021535 75 184 2.6 4.3 0.02 0.12 0.12 84 1015.7
20260904021033 75 181 2.6 7.0 0.02 0.12 0.12 83 1015.7
20260904020532 75 184 1.7 8.7 0.02 0.12 0.12 82 1015.2